Simultaneous Nadir Overpasses (SNOs) Predictions

Prediction of SNOs between NPP and GCOM-C Satellite Orbit:

Table of predicted SNOs for the next 14.0 days since TLE Epoch: 11/2/2024
Index Date (NPP) Time (NPP) Lat,Lon (NPP) SZA (NPP ) Date (GCOM-C) Time (GCOM-C) Lat,Lon (GCOM-C) SZA (GCOM-C ) Distance(km) Time Diff (sec)
1 11/03/2024 08:51:25 -70.04,-136.54 94.81 11/03/2024 08:52:33 -69.96,-134.50 94.87 78.40 68
2 11/03/2024 09:41:59 69.38, 31.74 84.55 11/03/2024 09:43:12 69.32, 31.97 84.49 11.40 73
3 11/03/2024 10:32:40 -69.26,-160.76 95.57 11/03/2024 10:33:43 -69.26,-160.74 95.57 1.07 63
4 11/03/2024 11:23:26 69.23, 6.59 84.42 11/03/2024 11:24:11 69.20, 6.58 84.39 2.63 45
5 11/03/2024 12:14:09 -69.21, 173.93 95.59 11/03/2024 12:14:41 -69.20, 173.94 95.61 1.63 32
6 11/03/2024 13:04:55 69.18, -18.72 84.39 11/03/2024 13:05:08 69.19, -18.67 84.41 2.69 13
7 11/03/2024 13:55:38 -69.16, 148.62 95.62 11/03/2024 13:55:39 -69.13, 148.62 95.65 3.10 1
8 11/03/2024 14:46:24 69.13, -44.03 84.37 11/03/2024 14:46:06 69.13, -43.99 84.37 1.46 18
9 11/03/2024 15:37:07 -69.11, 123.31 95.65 11/03/2024 15:36:36 -69.13, 123.37 95.63 2.72 31
10 11/03/2024 16:27:53 69.08, -69.34 84.34 11/03/2024 16:27:04 69.07, -69.31 84.33 1.61 49
11 11/03/2024 17:18:36 -69.07, 98.00 95.67 11/03/2024 17:17:34 -69.06, 98.05 95.68 1.91 62
12 11/03/2024 18:09:18 68.82, -94.35 84.10 11/03/2024 18:08:05 68.85, -94.85 84.12 20.19 73
13 11/03/2024 18:59:53 -68.38, 73.55 96.33 11/03/2024 18:58:43 -68.41, 71.96 96.32 65.44 70



Historial Predications of SNOs between NPP and GCOM-C
